Weather History for Hays, KS

Change the Weather History Date:

Wednesday, September 25, 2013

  Actual Average Record
Temperature  
Mean Temperature 65 °F -  
Max Temperature 84 °F 74 °F 100 °F (1998)
Min Temperature 46 °F 48 °F 30 °F (2000)
Growing Degree Days 15 (Base 50)    
Moisture  
Dew Point 50 °F    
Average Humidity 61    
Maximum Humidity 93    
Minimum Humidity 33    
Precipitation  
Precipitation 0.00 in - - ()
Sea Level Pressure  
Sea Level Pressure 29.81 in    
Wind  
Wind Speed 5 mph (SSE)    
Max Wind Speed 14 mph    
Max Gust Speed 18 mph    
Visibility 10 miles    
Events      
Averages and records for this station are not official NWS values.
T = Trace of Precipitation, MM = Missing Value Source: NWS Daily Summary

Daily Weather History Graph

Daily Weather History Graph

Search for Another Location

Airport:

Trip Planner

Search our weather history database for the weather conditions in past years. The results will help you decide how hot, cold, wet, or windy it might be!

Date:

Astronomy

Sep. 25, 2013 Rise Set
Actual Time 7:27 AM CDT 7:28 PM CDT
Civil Twilight 7:01 AM CDT 7:55 PM CDT
Nautical Twilight 6:30 AM CDT 8:26 PM CDT
Astronomical Twilight 5:58 AM CDT 8:57 PM CDT
Moon 11:39 PM CDT (9/25) 1:31 PM CDT (9/25)
Length of Visible Light 12h 54m
Length of Day
12h 01m
Waning Gibbous, 64% of the Moon is Illuminated
Sep 25
Waning Gibbous
Sep 26
Last Quarter
Oct 4
New
Oct 11
First Quarter
Oct 18
Full

Hourly Weather History & Observations

Time (CDT) Temp. Windchill Dew Point Humidity Pressure Visibility Wind Dir Wind Speed Gust Speed Precip Events Conditions
12:15 AM 51.8 °F - 46.4 °F 82% 29.96 in 10.0 mi Calm Calm - N/A   Clear
12:35 AM 51.8 °F - 48.2 °F 88% 29.96 in 10.0 mi Calm Calm - N/A   Clear
12:55 AM 51.8 °F - 46.4 °F 82% 29.95 in 10.0 mi Calm Calm - N/A   Clear
1:15 AM 51.8 °F - 48.2 °F 88% 29.94 in 10.0 mi ENE 4.6 mph - N/A   Clear
1:35 AM 50.0 °F - 46.4 °F 87% 29.94 in 10.0 mi West 3.5 mph - N/A   Clear
1:55 AM 48.2 °F - 44.6 °F 87% 29.94 in 10.0 mi Calm Calm - N/A   Clear
2:15 AM 51.8 °F - 44.6 °F 76% 29.93 in 10.0 mi Calm Calm - N/A   Clear
2:35 AM 48.2 °F - 44.6 °F 87% 29.93 in 10.0 mi Calm Calm - N/A   Clear
2:55 AM 48.2 °F - 44.6 °F 87% 29.93 in 10.0 mi Calm Calm - N/A   Clear
3:15 AM 48.2 °F - 44.6 °F 87% 29.93 in 10.0 mi Calm Calm - N/A   Clear
3:35 AM 48.2 °F - 44.6 °F 87% 29.93 in 10.0 mi Calm Calm - N/A   Clear
3:55 AM 48.2 °F - 44.6 °F 87% 29.93 in 10.0 mi Calm Calm - N/A   Clear
4:15 AM 50.0 °F - 46.4 °F 87% 29.93 in 10.0 mi Calm Calm - N/A   Clear
4:35 AM 48.2 °F - 44.6 °F 87% 29.93 in 10.0 mi Calm Calm - N/A   Clear
4:55 AM 48.2 °F - 44.6 °F 87% 29.92 in 10.0 mi East 3.5 mph - N/A   Clear
5:15 AM 48.2 °F - 44.6 °F 87% 29.92 in 10.0 mi East 3.5 mph - N/A   Clear
5:35 AM 46.4 °F - 42.8 °F 87% 29.93 in 10.0 mi Calm Calm - N/A   Clear
5:55 AM 48.2 °F - 44.6 °F 87% 29.92 in 10.0 mi East 3.5 mph - N/A   Clear
6:15 AM 48.2 °F - 46.4 °F 93% 29.92 in 10.0 mi East 3.5 mph - N/A   Clear
6:35 AM 48.2 °F - 44.6 °F 87% 29.93 in 10.0 mi ESE 3.5 mph - N/A   Clear
6:55 AM 46.4 °F - 42.8 °F 87% 29.93 in 10.0 mi Calm Calm - N/A   Clear
7:15 AM 46.4 °F - 42.8 °F 87% 29.93 in 10.0 mi Calm Calm - N/A   Clear
7:35 AM 48.2 °F - 44.6 °F 87% 29.93 in 10.0 mi ESE 3.5 mph - N/A   Clear
7:55 AM 46.4 °F 44.3 °F 44.6 °F 93% 29.92 in 7.0 mi ESE 4.6 mph - N/A   Clear
8:15 AM 48.2 °F - 46.4 °F 93% 29.93 in 9.0 mi SE 3.5 mph - N/A   Clear
8:35 AM 51.8 °F - 48.2 °F 88% 29.92 in 10.0 mi SE 4.6 mph - N/A   Clear
8:55 AM 55.4 °F - 51.8 °F 88% 29.92 in 10.0 mi SE 6.9 mph - N/A   Clear
9:15 AM 57.2 °F - 53.6 °F 88% 29.92 in 10.0 mi SSE 5.8 mph - N/A   Clear
9:35 AM 60.8 °F - 53.6 °F 77% 29.91 in 10.0 mi SSE 8.1 mph - N/A   Clear
9:55 AM 64.4 °F - 55.4 °F 73% 29.91 in 10.0 mi SSE 11.5 mph - N/A   Clear
10:15 AM 66.2 °F - 55.4 °F 68% 29.90 in 10.0 mi SSE 11.5 mph - N/A   Clear
10:35 AM 68.0 °F - 55.4 °F 64% 29.89 in 10.0 mi SSE 10.4 mph - N/A   Clear
10:55 AM 69.8 °F - 55.4 °F 60% 29.89 in 10.0 mi SSE 11.5 mph - N/A   Clear
11:15 AM 71.6 °F - 55.4 °F 57% 29.88 in 10.0 mi SSE 11.5 mph - N/A   Clear
11:35 AM 73.4 °F - 53.6 °F 50% 29.87 in 10.0 mi SE 13.8 mph - N/A   Clear
11:55 AM 73.4 °F - 53.6 °F 50% 29.85 in 10.0 mi SSE 12.7 mph - N/A   Clear
12:15 PM 75.2 °F - 53.6 °F 47% 29.84 in 10.0 mi SE 11.5 mph - N/A   Clear
12:35 PM 77.0 °F - 53.6 °F 44% 29.83 in 10.0 mi SSE 12.7 mph 17.3 mph N/A   Clear
12:55 PM 78.8 °F - 53.6 °F 42% 29.81 in 10.0 mi South 13.8 mph 18.4 mph N/A   Clear
1:15 PM 78.8 °F - 53.6 °F 42% 29.80 in 10.0 mi SSE 13.8 mph - N/A   Clear
1:35 PM 80.6 °F - 53.6 °F 39% 29.79 in 10.0 mi SSE 10.4 mph - N/A   Clear
1:55 PM 80.6 °F - 53.6 °F 39% 29.77 in 10.0 mi SSE 12.7 mph - N/A   Clear
2:15 PM 82.4 °F - 53.6 °F 37% 29.75 in 10.0 mi South 12.7 mph - N/A   Clear
2:35 PM 82.4 °F - 51.8 °F 35% 29.74 in 10.0 mi South 11.5 mph - N/A   Clear
2:55 PM 84.2 °F - 51.8 °F 33% 29.73 in 10.0 mi SSE 12.7 mph - N/A   Clear
3:15 PM 84.2 °F - 53.6 °F 35% 29.72 in 10.0 mi South 11.5 mph - N/A   Clear
3:35 PM 84.2 °F - 53.6 °F 35% 29.71 in 10.0 mi South 12.7 mph - N/A   Clear
3:55 PM 84.2 °F - 51.8 °F 33% 29.70 in 10.0 mi South 12.7 mph - N/A   Clear
4:15 PM 84.2 °F - 51.8 °F 33% 29.69 in 10.0 mi SSE 13.8 mph - N/A   Clear
4:35 PM 84.2 °F - 51.8 °F 33% 29.68 in 10.0 mi South 11.5 mph 16.1 mph N/A   Clear
4:55 PM 84.2 °F - 51.8 °F 33% 29.68 in 10.0 mi SSE 11.5 mph - N/A   Clear
5:15 PM 84.2 °F - 51.8 °F 33% 29.68 in 10.0 mi South 11.5 mph - N/A   Clear
5:35 PM 84.2 °F - 51.8 °F 33% 29.67 in 10.0 mi SSE 12.7 mph - N/A   Clear
5:55 PM 84.2 °F - 51.8 °F 33% 29.67 in 10.0 mi SSE 12.7 mph - N/A   Clear
6:15 PM 82.4 °F - 51.8 °F 35% 29.67 in 10.0 mi SSE 13.8 mph - N/A   Clear
6:35 PM 82.4 °F - 51.8 °F 35% 29.67 in 10.0 mi SSE 12.7 mph - N/A   Clear
6:55 PM 80.6 °F - 51.8 °F 37% 29.66 in 10.0 mi SSE 11.5 mph - N/A   Clear
7:15 PM 80.6 °F - 51.8 °F 37% 29.65 in 10.0 mi SSE 10.4 mph - N/A   Clear
7:35 PM 78.8 °F - 51.8 °F 39% 29.65 in 10.0 mi SE 9.2 mph - N/A   Clear
7:55 PM 77.0 °F - 51.8 °F 41% 29.65 in 10.0 mi SE 11.5 mph - N/A   Clear
8:15 PM 75.2 °F - 51.8 °F 44% 29.65 in 10.0 mi SE 11.5 mph - N/A   Clear
8:35 PM 75.2 °F - 51.8 °F 44% 29.66 in 10.0 mi SE 11.5 mph - N/A   Clear
8:55 PM 73.4 °F - 51.8 °F 47% 29.66 in 10.0 mi SE 11.5 mph - N/A   Clear
9:15 PM 73.4 °F - 51.8 °F 47% 29.67 in 10.0 mi SSE 11.5 mph - N/A   Clear
9:35 PM 73.4 °F - 51.8 °F 47% 29.67 in 10.0 mi SSE 12.7 mph - N/A   Clear
9:55 PM 73.4 °F - 51.8 °F 47% 29.68 in 10.0 mi SSE 13.8 mph - N/A   Clear
10:15 PM 71.6 °F - 51.8 °F 50% 29.68 in 10.0 mi SSE 12.7 mph - N/A   Clear
10:35 PM 71.6 °F - 51.8 °F 50% 29.68 in 10.0 mi SSE 11.5 mph - N/A   Clear
10:55 PM 71.6 °F - 51.8 °F 50% 29.68 in 10.0 mi SSE 12.7 mph - N/A   Clear
11:15 PM 71.6 °F - 51.8 °F 50% 29.68 in 10.0 mi SSE 12.7 mph - N/A   Clear
11:35 PM 69.8 °F - 51.8 °F 53% 29.67 in 10.0 mi SSE 13.8 mph - N/A   Clear
11:55 PM 71.6 °F - 51.8 °F 50% 29.67 in 10.0 mi SSE 13.8 mph - N/A   Clear